OCN3HT EDDF-GCLP

Flight info

Callsign OCN3HT
Flight time 4h 26m
Altitude 35000
Route SOBRA1F SOBRA Y180 DIK UN857 TOLVU DCT RAPOR DCT GIMER DCT AHVEC UN857 DISAK DCT ARKIP DCT ARNAV DCT LMG DCT UVELI DCT OSMOB DCT VAVIX/N0361F210 DCT BTZ DCT URUNA/N0441F350 DCT SSN DCT VRA DCT NEA L14 ADINO/N0447F370 DCT ELVAR DCT BAROK UN873 SAMAR
Aircraft A320/M-SDE2E3FGIJ1LORWXYZ/HB1

Departure

Time 2026-05-07 02:45
Airport Frankfurt Main Airport (EDDF)

Arrival

Time 2026-05-07 07:12
Airport Gran Canaria Airport (GCLP)
Time Latitude Longitude Altitude Speed Heading
2026-05-07 02:05 50.04580 8.56621 356 ft 0 kts 115°
2026-05-07 02:13 50.04580 8.56620 356 ft 0 kts 115°
2026-05-07 02:32 50.04583 8.56613 356 ft 3 kts 115°
2026-05-07 02:32 50.04592 8.56581 363 ft 3 kts 116°
2026-05-07 02:33 50.04602 8.56550 361 ft 3 kts 120°
2026-05-07 02:33 50.04615 8.56520 363 ft 3 kts 133°
2026-05-07 02:33 50.04630 8.56501 362 ft 3 kts 177°
2026-05-07 02:33 50.04633 8.56498 361 ft 3 kts 204°
2026-05-07 02:34 50.04612 8.56483 362 ft 3 kts 204°
2026-05-07 02:34 50.04592 8.56469 360 ft 3 kts 204°
2026-05-07 02:34 50.04578 8.56459 356 ft 0 kts 205°
2026-05-07 02:37 50.04568 8.56452 358 ft 4 kts 205°
2026-05-07 02:37 50.04528 8.56414 363 ft 9 kts 227°
2026-05-07 02:37 50.04497 8.56306 358 ft 11 kts 249°
2026-05-07 02:37 50.04471 8.56194 357 ft 11 kts 250°
2026-05-07 02:38 50.04446 8.56086 358 ft 11 kts 250°
2026-05-07 02:38 50.04416 8.55963 357 ft 13 kts 243°
2026-05-07 02:38 50.04331 8.55934 356 ft 14 kts 158°
2026-05-07 02:38 50.04254 8.55949 356 ft 10 kts 205°
2026-05-07 02:39 50.04219 8.55856 360 ft 11 kts 251°
2026-05-07 02:39 50.04193 8.55743 360 ft 11 kts 246°
2026-05-07 02:39 50.04164 8.55627 359 ft 12 kts 251°
2026-05-07 02:39 50.04134 8.55500 357 ft 13 kts 250°
2026-05-07 02:40 50.04101 8.55358 355 ft 14 kts 249°
2026-05-07 02:40 50.04065 8.55210 359 ft 15 kts 249°
2026-05-07 02:40 50.04027 8.55050 356 ft 17 kts 250°
2026-05-07 02:40 50.03985 8.54873 353 ft 19 kts 250°
2026-05-07 02:41 50.03938 8.54669 357 ft 21 kts 250°
2026-05-07 02:41 50.03882 8.54446 347 ft 22 kts 248°
2026-05-07 02:41 50.03810 8.54251 347 ft 20 kts 239°
2026-05-07 02:41 50.03762 8.54066 352 ft 17 kts 250°
2026-05-07 02:42 50.03723 8.53901 343 ft 16 kts 250°
2026-05-07 02:42 50.03681 8.53724 344 ft 17 kts 249°
2026-05-07 02:42 50.03635 8.53543 339 ft 18 kts 246°
2026-05-07 02:42 50.03590 8.53364 336 ft 17 kts 250°
2026-05-07 02:43 50.03549 8.53189 334 ft 17 kts 250°
2026-05-07 02:43 50.03509 8.53022 335 ft 15 kts 250°
2026-05-07 02:43 50.03473 8.52876 335 ft 14 kts 245°
2026-05-07 02:43 50.03438 8.52748 333 ft 12 kts 250°
2026-05-07 02:44 50.03410 8.52635 333 ft 10 kts 246°
2026-05-07 02:44 50.03364 8.52594 335 ft 6 kts 180°
2026-05-07 02:44 50.03354 8.52594 335 ft 0 kts 180°
2026-05-07 02:44 50.03162 8.52594 335 ft 64 kts 180°
2026-05-07 02:45 50.02511 8.52604 335 ft 121 kts 180°
2026-05-07 02:45 50.01503 8.52610 333 ft 166 kts 179°
2026-05-07 02:45 50.00243 8.52625 591 ft 185 kts 179°
2026-05-07 02:45 49.98966 8.52659 1325 ft 183 kts 180°
2026-05-07 02:46 49.97693 8.52746 1855 ft 192 kts 180°
2026-05-07 02:46 49.96283 8.52847 2092 ft 214 kts 180°
2026-05-07 02:46 49.94734 8.52958 2420 ft 231 kts 179°
2026-05-07 02:46 49.93111 8.53072 3052 ft 235 kts 180°
2026-05-07 02:47 49.91473 8.53192 3775 ft 236 kts 179°
2026-05-07 02:47 49.89823 8.53314 4513 ft 238 kts 179°
2026-05-07 02:47 49.88160 8.53427 5249 ft 240 kts 182°
2026-05-07 02:47 49.86519 8.53039 5854 ft 245 kts 201°
2026-05-07 02:48 49.84844 8.52117 6182 ft 264 kts 202°
2026-05-07 02:48 49.83094 8.51125 6826 ft 271 kts 203°
2026-05-07 02:48 49.81307 8.50110 7530 ft 275 kts 203°
2026-05-07 02:48 49.79498 8.49081 8253 ft 279 kts 203°
2026-05-07 02:49 49.77757 8.47772 8944 ft 279 kts 221°
2026-05-07 02:49 49.76499 8.45526 9651 ft 277 kts 245°
2026-05-07 02:49 49.75948 8.42692 10217 ft 280 kts 267°
2026-05-07 02:49 49.76179 8.39611 10380 ft 300 kts 285°
2026-05-07 02:50 49.76713 8.36378 10615 ft 319 kts 285°
2026-05-07 02:50 49.77274 8.33018 11161 ft 325 kts 285°
2026-05-07 02:50 49.77838 8.29602 11772 ft 330 kts 285°
2026-05-07 02:50 49.78402 8.26141 12390 ft 334 kts 285°
2026-05-07 02:51 49.78972 8.22626 12995 ft 339 kts 284°
2026-05-07 02:51 49.79544 8.19070 13590 ft 343 kts 284°
2026-05-07 02:51 49.80121 8.15460 14115 ft 347 kts 285°
2026-05-07 02:51 49.80702 8.11811 14634 ft 351 kts 284°
2026-05-07 02:52 49.81287 8.08121 15188 ft 354 kts 284°
2026-05-07 02:52 49.81878 8.04401 15745 ft 357 kts 284°
2026-05-07 02:52 49.82474 8.00644 16293 ft 360 kts 284°
2026-05-07 02:52 49.83069 7.96865 16855 ft 363 kts 284°
2026-05-07 02:53 49.83666 7.93046 17407 ft 365 kts 284°
2026-05-07 02:53 49.84267 7.89210 17919 ft 369 kts 284°
2026-05-07 02:53 49.84872 7.85328 18413 ft 372 kts 284°
2026-05-07 02:53 49.85481 7.81424 18865 ft 375 kts 284°
2026-05-07 02:54 49.85887 7.78814 19169 ft 376 kts 284°
2026-05-07 02:54 49.86503 7.74867 19604 ft 379 kts 284°
2026-05-07 02:54 49.87132 7.70890 20084 ft 380 kts 284°
2026-05-07 02:54 49.87762 7.66898 20538 ft 382 kts 284°
2026-05-07 02:55 49.88389 7.62879 20991 ft 384 kts 284°
2026-05-07 02:55 49.89014 7.58838 21430 ft 387 kts 283°
2026-05-07 02:55 49.89639 7.54772 21846 ft 389 kts 283°
2026-05-07 02:55 49.90266 7.50674 22277 ft 392 kts 283°
2026-05-07 02:56 49.90898 7.46548 22676 ft 394 kts 283°
2026-05-07 02:56 49.91532 7.42402 23089 ft 396 kts 283°
2026-05-07 02:56 49.92166 7.38227 23494 ft 399 kts 283°
2026-05-07 02:56 49.92801 7.34026 23846 ft 401 kts 283°
2026-05-07 02:57 49.93438 7.29804 24191 ft 403 kts 283°
2026-05-07 02:57 49.94081 7.25561 24538 ft 404 kts 283°
2026-05-07 02:57 49.94727 7.21305 24874 ft 406 kts 283°
2026-05-07 02:57 49.95371 7.17035 25203 ft 408 kts 283°
2026-05-07 02:58 49.96015 7.12735 25503 ft 410 kts 283°
2026-05-07 02:58 49.96660 7.08417 25833 ft 411 kts 283°
2026-05-07 02:58 49.97309 7.04076 26140 ft 413 kts 283°
2026-05-07 02:58 49.97955 6.99727 26471 ft 414 kts 283°
2026-05-07 02:59 49.98601 6.95356 26774 ft 416 kts 283°
2026-05-07 02:59 49.99134 6.90925 27057 ft 418 kts 276°
2026-05-07 02:59 49.99220 6.86409 27347 ft 420 kts 267°
2026-05-07 02:59 49.99074 6.81862 27617 ft 422 kts 267°
2026-05-07 03:00 49.98935 6.77296 27926 ft 424 kts 267°
2026-05-07 03:00 49.98798 6.72715 28225 ft 425 kts 267°
2026-05-07 03:00 49.98660 6.68113 28508 ft 427 kts 267°
2026-05-07 03:00 49.98521 6.63493 28780 ft 429 kts 267°
2026-05-07 03:01 49.98302 6.58869 29040 ft 431 kts 262°
2026-05-07 03:01 49.97652 6.54314 29268 ft 433 kts 252°
2026-05-07 03:01 49.96560 6.49948 29510 ft 435 kts 246°
2026-05-07 03:01 49.95343 6.45640 29750 ft 437 kts 246°
2026-05-07 03:02 49.94125 6.41306 29988 ft 438 kts 246°
2026-05-07 03:02 49.92924 6.37017 30193 ft 440 kts 246°
2026-05-07 03:02 49.91703 6.32663 30480 ft 440 kts 246°
2026-05-07 03:02 49.90464 6.28263 30776 ft 439 kts 246°
2026-05-07 03:03 49.89239 6.24001 31048 ft 439 kts 246°
2026-05-07 03:03 49.87991 6.19685 31303 ft 439 kts 246°
2026-05-07 03:03 49.86755 6.15356 31579 ft 439 kts 245°
2026-05-07 03:03 49.85287 6.11219 31838 ft 439 kts 237°
2026-05-07 03:04 49.83547 6.07332 32077 ft 439 kts 235°
2026-05-07 03:04 49.81786 6.03468 32337 ft 439 kts 235°
2026-05-07 03:04 49.80017 5.99617 32602 ft 439 kts 235°
2026-05-07 03:04 49.78240 5.95770 32856 ft 439 kts 234°
2026-05-07 03:05 49.76461 5.91930 33116 ft 439 kts 234°
2026-05-07 03:05 49.74754 5.88012 33353 ft 439 kts 240°
2026-05-07 03:05 49.73425 5.83777 33569 ft 439 kts 250°
2026-05-07 03:05 49.72391 5.79336 33775 ft 439 kts 251°
2026-05-07 03:06 49.71364 5.74880 34024 ft 440 kts 251°
2026-05-07 03:06 49.70334 5.70437 34247 ft 440 kts 251°
2026-05-07 03:06 49.69300 5.65994 34440 ft 439 kts 251°
2026-05-07 03:06 49.68265 5.61561 34655 ft 439 kts 250°
2026-05-07 03:07 49.67228 5.57133 34861 ft 438 kts 250°
2026-05-07 03:07 49.66188 5.52703 34955 ft 438 kts 250°
2026-05-07 03:07 49.64118 5.43906 34976 ft 435 kts 250°
2026-05-07 03:08 49.62062 5.35143 34971 ft 434 kts 251°
2026-05-07 03:08 49.60137 5.26325 34980 ft 434 kts 252°
2026-05-07 03:09 49.58330 5.17445 34980 ft 434 kts 255°
2026-05-07 03:09 49.56766 5.08460 34982 ft 434 kts 256°
2026-05-07 03:10 49.55262 4.99460 34991 ft 434 kts 256°
2026-05-07 03:10 49.53694 4.90492 34985 ft 434 kts 255°
2026-05-07 03:11 49.52076 4.81551 34986 ft 434 kts 255°
2026-05-07 03:11 49.50454 4.72622 34979 ft 433 kts 255°
2026-05-07 03:12 49.48827 4.63693 34990 ft 433 kts 255°
2026-05-07 03:12 49.47197 4.54777 34988 ft 433 kts 255°
2026-05-07 03:13 49.45569 4.45868 34986 ft 433 kts 255°
2026-05-07 03:13 49.43934 4.36953 34979 ft 433 kts 255°
2026-05-07 03:14 49.42292 4.28045 34980 ft 433 kts 255°
2026-05-07 03:15 49.39801 4.14703 34987 ft 434 kts 255°
2026-05-07 03:15 49.38127 4.05809 34988 ft 434 kts 255°
2026-05-07 03:16 49.36197 3.97045 34999 ft 435 kts 244°
2026-05-07 03:16 49.32996 3.89184 34999 ft 435 kts 237°
2026-05-07 03:17 49.29663 3.81519 34996 ft 435 kts 237°
2026-05-07 03:17 49.26304 3.73801 35003 ft 436 kts 237°
2026-05-07 03:18 49.22941 3.66095 35000 ft 436 kts 237°
2026-05-07 03:18 49.19569 3.58400 34999 ft 436 kts 237°
2026-05-07 03:19 49.16185 3.50714 35007 ft 436 kts 237°
2026-05-07 03:19 49.12802 3.43035 35006 ft 436 kts 237°
2026-05-07 03:20 49.09415 3.35362 35006 ft 436 kts 237°
2026-05-07 03:20 49.06018 3.27691 35011 ft 436 kts 237°
2026-05-07 03:21 49.02614 3.20034 35014 ft 436 kts 237°
2026-05-07 03:21 48.99205 3.12391 35016 ft 436 kts 237°
2026-05-07 03:22 48.95784 3.04749 35018 ft 436 kts 237°
2026-05-07 03:22 48.92359 2.97134 35022 ft 436 kts 237°
2026-05-07 03:23 48.88938 2.89519 35024 ft 436 kts 237°
2026-05-07 03:23 48.85517 2.81911 35024 ft 436 kts 237°
2026-05-07 03:24 48.82080 2.74333 35031 ft 436 kts 237°
2026-05-07 03:24 48.78647 2.66767 35028 ft 435 kts 237°
2026-05-07 03:25 48.75215 2.59207 35025 ft 435 kts 237°
2026-05-07 03:25 48.71774 2.51651 35027 ft 435 kts 237°
2026-05-07 03:26 48.68335 2.44119 35028 ft 435 kts 237°
2026-05-07 03:26 48.64886 2.36602 35027 ft 435 kts 236°
2026-05-07 03:27 48.61456 2.29150 35023 ft 435 kts 236°
2026-05-07 03:27 48.57481 2.22289 35023 ft 437 kts 219°
2026-05-07 03:28 48.52171 2.17859 35018 ft 440 kts 199°
2026-05-07 03:28 48.46205 2.15753 35008 ft 441 kts 193°
2026-05-07 03:29 48.40200 2.13821 35003 ft 441 kts 193°
2026-05-07 03:29 48.34195 2.11887 35006 ft 441 kts 193°
2026-05-07 03:30 48.28132 2.10446 35008 ft 443 kts 182°
2026-05-07 03:30 48.21989 2.11340 35010 ft 444 kts 173°
2026-05-07 03:31 48.15866 2.12634 35010 ft 445 kts 174°
2026-05-07 03:31 48.09718 2.12500 35012 ft 442 kts 189°
2026-05-07 03:32 48.03613 2.11308 35016 ft 442 kts 189°
2026-05-07 03:32 47.97509 2.10132 35017 ft 443 kts 188°
2026-05-07 03:33 47.91398 2.08975 35017 ft 443 kts 188°
2026-05-07 03:33 47.85281 2.07822 35019 ft 443 kts 188°
2026-05-07 03:34 47.79209 2.06656 35014 ft 443 kts 188°
2026-05-07 03:34 47.73056 2.05479 35006 ft 443 kts 189°
2026-05-07 03:35 47.66947 2.04320 35007 ft 443 kts 188°
2026-05-07 03:35 47.60979 2.02281 35008 ft 439 kts 203°
2026-05-07 03:36 47.55304 1.98952 35001 ft 439 kts 203°
2026-05-07 03:36 47.49652 1.95686 35006 ft 439 kts 203°
2026-05-07 03:37 47.43956 1.92413 35010 ft 439 kts 203°
2026-05-07 03:37 47.38259 1.89132 35012 ft 439 kts 203°
2026-05-07 03:38 47.32565 1.85845 35013 ft 439 kts 203°
2026-05-07 03:38 47.26871 1.82569 35026 ft 439 kts 203°
2026-05-07 03:39 47.21170 1.79308 35021 ft 440 kts 203°
2026-05-07 03:39 47.15461 1.76076 35025 ft 440 kts 203°
2026-05-07 03:40 47.09752 1.72873 35029 ft 439 kts 203°
2026-05-07 03:40 47.04971 1.70187 35034 ft 439 kts 203°
2026-05-07 03:41 46.99308 1.67005 35033 ft 438 kts 203°
2026-05-07 03:41 46.93612 1.63812 35022 ft 438 kts 203°
2026-05-07 03:42 46.87919 1.60632 35031 ft 438 kts 203°
2026-05-07 03:42 46.82229 1.57462 35017 ft 437 kts 203°
2026-05-07 03:43 46.76546 1.54308 35015 ft 437 kts 203°
2026-05-07 03:43 46.70859 1.51155 35012 ft 437 kts 203°
2026-05-07 03:44 46.65177 1.48010 35017 ft 437 kts 203°
2026-05-07 03:44 46.59487 1.44871 35001 ft 437 kts 203°
2026-05-07 03:45 46.53799 1.41741 34999 ft 437 kts 203°
2026-05-07 03:45 46.48110 1.38620 35002 ft 437 kts 203°
2026-05-07 03:46 46.42417 1.35496 35003 ft 437 kts 203°
2026-05-07 03:46 46.36727 1.32381 35004 ft 437 kts 203°
2026-05-07 03:47 46.31033 1.29269 35001 ft 437 kts 203°
2026-05-07 03:47 46.25342 1.26164 35000 ft 437 kts 203°
2026-05-07 03:48 46.19646 1.23066 35004 ft 437 kts 203°
2026-05-07 03:48 46.13995 1.20002 34998 ft 437 kts 203°
2026-05-07 03:49 46.08271 1.16911 35005 ft 435 kts 203°
2026-05-07 03:49 46.02608 1.13855 35010 ft 434 kts 203°
2026-05-07 03:50 45.96999 1.10825 35008 ft 433 kts 203°
2026-05-07 03:50 45.91356 1.07791 35005 ft 433 kts 203°
2026-05-07 03:51 45.85717 1.04768 35002 ft 432 kts 203°
2026-05-07 03:51 45.80371 1.00976 34996 ft 427 kts 218°
2026-05-07 03:52 45.75805 0.95595 34985 ft 425 kts 223°
2026-05-07 03:52 45.71271 0.90166 34983 ft 425 kts 222°
2026-05-07 03:53 45.66698 0.84725 34981 ft 425 kts 222°
2026-05-07 03:53 45.62162 0.79324 34986 ft 425 kts 222°
2026-05-07 03:54 45.57657 0.73965 34996 ft 424 kts 222°
2026-05-07 03:54 45.53137 0.68596 34998 ft 422 kts 222°
2026-05-07 03:55 45.48632 0.63259 35002 ft 421 kts 222°
2026-05-07 03:55 45.44130 0.57944 35001 ft 420 kts 222°
2026-05-07 03:56 45.39588 0.52591 34996 ft 429 kts 222°
2026-05-07 03:56 45.34939 0.47111 34993 ft 439 kts 222°
2026-05-07 03:57 45.30211 0.41562 34991 ft 442 kts 221°
2026-05-07 03:57 45.25472 0.36018 34992 ft 441 kts 221°
2026-05-07 03:58 45.20741 0.30496 34997 ft 440 kts 221°
2026-05-07 03:58 45.16016 0.24982 34982 ft 440 kts 221°
2026-05-07 03:59 45.11287 0.19478 34986 ft 440 kts 221°
2026-05-07 03:59 45.06553 0.13987 34996 ft 440 kts 221°
2026-05-07 04:00 45.01815 0.08509 34999 ft 440 kts 221°
2026-05-07 04:00 44.98744 0.04963 34988 ft 440 kts 221°
2026-05-07 04:01 44.94897 0.00519 34991 ft 440 kts 221°
2026-05-07 04:01 44.90160 -0.04937 34999 ft 440 kts 221°
2026-05-07 04:02 44.85416 -0.10392 35001 ft 440 kts 221°
2026-05-07 04:02 44.80673 -0.15835 35006 ft 440 kts 220°
2026-05-07 04:03 44.75923 -0.21271 35011 ft 440 kts 220°
2026-05-07 04:03 44.71171 -0.26694 35013 ft 440 kts 220°
2026-05-07 04:04 44.66417 -0.32115 35016 ft 440 kts 220°
2026-05-07 04:04 44.61551 -0.37340 35017 ft 441 kts 217°
2026-05-07 04:05 44.56469 -0.42164 35012 ft 441 kts 215°
2026-05-07 04:05 44.51349 -0.46900 35018 ft 441 kts 216°
2026-05-07 04:06 44.46266 -0.51721 35021 ft 441 kts 216°
2026-05-07 04:06 44.41239 -0.56554 35013 ft 441 kts 216°
2026-05-07 04:07 44.36177 -0.61406 35025 ft 441 kts 216°
2026-05-07 04:07 44.31115 -0.66239 35028 ft 440 kts 216°
2026-05-07 04:08 44.26065 -0.71072 35029 ft 440 kts 217°
2026-05-07 04:08 44.21120 -0.76095 35017 ft 439 kts 219°
2026-05-07 04:09 44.16230 -0.81176 35032 ft 438 kts 219°
2026-05-07 04:09 44.11323 -0.86212 35034 ft 438 kts 218°
2026-05-07 04:10 44.06402 -0.91199 35030 ft 437 kts 218°
2026-05-07 04:10 44.01483 -0.96170 35015 ft 437 kts 218°
2026-05-07 04:11 43.96579 -1.01139 35029 ft 436 kts 218°
2026-05-07 04:11 43.91677 -1.06087 35034 ft 435 kts 218°
2026-05-07 04:12 43.86775 -1.11017 35034 ft 435 kts 218°
2026-05-07 04:12 43.81877 -1.15934 35028 ft 435 kts 218°
2026-05-07 04:13 43.76986 -1.20844 35042 ft 434 kts 218°
2026-05-07 04:13 43.72140 -1.25700 35040 ft 433 kts 218°
2026-05-07 04:14 43.67265 -1.30570 35035 ft 432 kts 218°
2026-05-07 04:14 43.62390 -1.35432 35032 ft 432 kts 218°
2026-05-07 04:15 43.57519 -1.40277 35010 ft 431 kts 218°
2026-05-07 04:15 43.52651 -1.45102 35014 ft 431 kts 218°
2026-05-07 04:16 43.47832 -1.50001 34999 ft 429 kts 224°
2026-05-07 04:16 43.44109 -1.56302 35003 ft 425 kts 237°
2026-05-07 04:17 43.40839 -1.63070 35001 ft 425 kts 237°
2026-05-07 04:17 43.37557 -1.69813 35042 ft 424 kts 237°
2026-05-07 04:18 43.34274 -1.76541 35043 ft 424 kts 237°
2026-05-07 04:18 43.30993 -1.83261 35039 ft 424 kts 236°
2026-05-07 04:19 43.27529 -1.89808 35018 ft 424 kts 234°
2026-05-07 04:19 43.23918 -1.96205 35033 ft 424 kts 233°
2026-05-07 04:20 43.20315 -2.02601 35014 ft 424 kts 233°
2026-05-07 04:20 43.16752 -2.09033 35020 ft 424 kts 234°
2026-05-07 04:21 43.11407 -2.18666 35030 ft 424 kts 233°
2026-05-07 04:21 43.07835 -2.25082 35016 ft 424 kts 233°
2026-05-07 04:22 43.04260 -2.31482 35035 ft 423 kts 233°
2026-05-07 04:22 43.00682 -2.37868 35026 ft 423 kts 233°
2026-05-07 04:23 42.97106 -2.44249 35022 ft 423 kts 233°
2026-05-07 04:23 42.93528 -2.50622 35030 ft 423 kts 233°
2026-05-07 04:24 42.89946 -2.56977 35025 ft 422 kts 233°
2026-05-07 04:24 42.86362 -2.63324 35002 ft 422 kts 233°
2026-05-07 04:25 42.83382 -2.68600 35011 ft 422 kts 233°
2026-05-07 04:25 42.79801 -2.74935 35009 ft 423 kts 233°
2026-05-07 04:26 42.76204 -2.81277 35019 ft 423 kts 232°
2026-05-07 04:26 42.72602 -2.87600 35030 ft 423 kts 233°
2026-05-07 04:27 42.69038 -2.93964 35032 ft 423 kts 233°
2026-05-07 04:27 42.65499 -3.00355 35035 ft 423 kts 233°
2026-05-07 04:28 42.61959 -3.06740 35036 ft 423 kts 233°
2026-05-07 04:28 42.58404 -3.13118 35031 ft 423 kts 233°
2026-05-07 04:29 42.54840 -3.19479 35016 ft 424 kts 233°
2026-05-07 04:29 42.51269 -3.25834 35018 ft 424 kts 233°
2026-05-07 04:30 42.47695 -3.32185 34995 ft 424 kts 233°
2026-05-07 04:30 42.44115 -3.38531 34991 ft 424 kts 232°
2026-05-07 04:31 42.40529 -3.44870 34987 ft 424 kts 232°
2026-05-07 04:31 42.36943 -3.51198 34993 ft 424 kts 232°
2026-05-07 04:32 42.33358 -3.57532 34983 ft 424 kts 232°
2026-05-07 04:32 42.29765 -3.63861 34970 ft 424 kts 232°
2026-05-07 04:33 42.26185 -3.70128 34973 ft 424 kts 232°
2026-05-07 04:33 42.22577 -3.76442 34991 ft 425 kts 232°
2026-05-07 04:34 42.18973 -3.82748 35010 ft 425 kts 232°
2026-05-07 04:34 42.15358 -3.89056 35000 ft 425 kts 231°
2026-05-07 04:35 42.11736 -3.95353 35003 ft 425 kts 231°
2026-05-07 04:35 42.08112 -4.01637 34990 ft 425 kts 231°
2026-05-07 04:36 42.04490 -4.07913 34988 ft 424 kts 231°
2026-05-07 04:36 42.00446 -4.13648 34981 ft 423 kts 221°
2026-05-07 04:37 41.96005 -4.18849 34978 ft 423 kts 221°
2026-05-07 04:37 41.91559 -4.24046 34976 ft 424 kts 221°
2026-05-07 04:38 41.87115 -4.29243 34976 ft 424 kts 221°
2026-05-07 04:38 41.82667 -4.34425 34972 ft 424 kts 221°
2026-05-07 04:39 41.78217 -4.39605 34964 ft 424 kts 221°
2026-05-07 04:39 41.73767 -4.44780 34960 ft 423 kts 221°
2026-05-07 04:40 41.69318 -4.49944 34962 ft 423 kts 221°
2026-05-07 04:40 41.64863 -4.55100 34949 ft 423 kts 221°
2026-05-07 04:41 41.60410 -4.60241 34947 ft 423 kts 220°
2026-05-07 04:41 41.55947 -4.65387 34944 ft 424 kts 220°
2026-05-07 04:42 41.51485 -4.70524 34946 ft 424 kts 220°
2026-05-07 04:42 41.47053 -4.75622 34939 ft 424 kts 220°
2026-05-07 04:43 41.42590 -4.80739 34938 ft 424 kts 220°
2026-05-07 04:43 41.38120 -4.85858 34943 ft 424 kts 220°
2026-05-07 04:44 41.33640 -4.90965 34945 ft 424 kts 220°
2026-05-07 04:44 41.29164 -4.96062 34940 ft 424 kts 220°
2026-05-07 04:45 41.24681 -5.01161 34932 ft 424 kts 220°
2026-05-07 04:45 41.20195 -5.06260 34921 ft 425 kts 220°
2026-05-07 04:46 41.15703 -5.11358 34924 ft 425 kts 220°
2026-05-07 04:46 41.11199 -5.16439 34924 ft 425 kts 220°
2026-05-07 04:47 41.06696 -5.21516 34924 ft 425 kts 220°
2026-05-07 04:47 41.02189 -5.26588 34923 ft 425 kts 220°
2026-05-07 04:48 40.97682 -5.31660 34920 ft 425 kts 220°
2026-05-07 04:48 40.93166 -5.36732 34915 ft 426 kts 219°
2026-05-07 04:49 40.88642 -5.41802 34910 ft 427 kts 219°
2026-05-07 04:49 40.84106 -5.46876 34912 ft 427 kts 219°
2026-05-07 04:50 40.79563 -5.51947 34919 ft 428 kts 219°
2026-05-07 04:50 40.75019 -5.57016 34918 ft 428 kts 219°
2026-05-07 04:51 40.70464 -5.62073 34925 ft 428 kts 219°
2026-05-07 04:51 40.65902 -5.67129 34933 ft 428 kts 219°
2026-05-07 04:52 40.61342 -5.72184 34945 ft 429 kts 219°
2026-05-07 04:52 40.56778 -5.77245 34929 ft 429 kts 219°
2026-05-07 04:53 40.52202 -5.82302 34920 ft 430 kts 219°
2026-05-07 04:53 40.47618 -5.87356 34919 ft 430 kts 219°
2026-05-07 04:54 40.43029 -5.92397 34919 ft 430 kts 219°
2026-05-07 04:54 40.38436 -5.97440 34917 ft 431 kts 219°
2026-05-07 04:55 40.33844 -6.02481 34917 ft 431 kts 219°
2026-05-07 04:55 40.29241 -6.07511 34912 ft 431 kts 219°
2026-05-07 04:56 40.24636 -6.12525 34910 ft 431 kts 219°
2026-05-07 04:56 40.20053 -6.17521 34903 ft 432 kts 219°
2026-05-07 04:57 40.15436 -6.22547 34902 ft 432 kts 219°
2026-05-07 04:57 40.10810 -6.27577 34898 ft 433 kts 219°
2026-05-07 04:58 40.06180 -6.32598 34889 ft 433 kts 219°
2026-05-07 04:58 40.01539 -6.37615 34889 ft 433 kts 219°
2026-05-07 04:59 39.96899 -6.42623 34892 ft 433 kts 219°
2026-05-07 04:59 39.92258 -6.47629 34903 ft 433 kts 220°
2026-05-07 05:00 39.87604 -6.52638 34885 ft 435 kts 220°
2026-05-07 05:00 39.82931 -6.57655 34874 ft 436 kts 220°
2026-05-07 05:01 39.78254 -6.62676 34878 ft 436 kts 220°
2026-05-07 05:01 39.73562 -6.67698 34881 ft 437 kts 220°
2026-05-07 05:02 39.68865 -6.72715 34887 ft 437 kts 220°
2026-05-07 05:02 39.64165 -6.77732 34891 ft 438 kts 220°
2026-05-07 05:03 39.59456 -6.82736 34886 ft 438 kts 220°
2026-05-07 05:03 39.54742 -6.87744 34876 ft 440 kts 221°
2026-05-07 05:04 39.49996 -6.92780 34869 ft 442 kts 221°
2026-05-07 05:04 39.45229 -6.97824 34870 ft 443 kts 220°
2026-05-07 05:05 39.40441 -7.02870 34879 ft 444 kts 220°
2026-05-07 05:05 39.35649 -7.07926 34874 ft 445 kts 221°
2026-05-07 05:06 39.30851 -7.12988 34881 ft 445 kts 221°
2026-05-07 05:06 39.26043 -7.18038 34894 ft 446 kts 221°
2026-05-07 05:07 39.21208 -7.23056 34892 ft 447 kts 220°
2026-05-07 05:07 39.16158 -7.27794 34876 ft 451 kts 218°
2026-05-07 05:08 39.10964 -7.32368 34872 ft 453 kts 218°
2026-05-07 05:08 39.05798 -7.36942 34881 ft 454 kts 218°
2026-05-07 05:09 39.00619 -7.41609 34885 ft 455 kts 218°
2026-05-07 05:09 38.95443 -7.46298 34913 ft 455 kts 218°
2026-05-07 05:10 38.90262 -7.50979 34911 ft 456 kts 218°
2026-05-07 05:10 38.85066 -7.55648 34898 ft 456 kts 219°
2026-05-07 05:11 38.79871 -7.60308 34903 ft 456 kts 219°
2026-05-07 05:11 38.74652 -7.64978 34882 ft 459 kts 220°
2026-05-07 05:12 38.70287 -7.68881 34893 ft 461 kts 220°
2026-05-07 05:12 38.65011 -7.73581 34892 ft 463 kts 220°
2026-05-07 05:13 38.59728 -7.78286 34872 ft 464 kts 220°
2026-05-07 05:13 38.54427 -7.82997 34892 ft 464 kts 220°
2026-05-07 05:14 38.49125 -7.87704 34908 ft 464 kts 220°
2026-05-07 05:14 38.43816 -7.92396 34921 ft 464 kts 220°
2026-05-07 05:15 38.38502 -7.97090 34922 ft 464 kts 220°
2026-05-07 05:15 38.33197 -8.01777 34922 ft 464 kts 220°
2026-05-07 05:16 38.27889 -8.06453 34923 ft 464 kts 220°
2026-05-07 05:16 38.22582 -8.11122 34929 ft 464 kts 220°
2026-05-07 05:17 38.17274 -8.15781 34933 ft 463 kts 220°
2026-05-07 05:17 38.11964 -8.20427 34933 ft 463 kts 220°
2026-05-07 05:18 38.06654 -8.25070 34936 ft 463 kts 220°
2026-05-07 05:18 38.01342 -8.29706 34940 ft 463 kts 220°
2026-05-07 05:19 37.96028 -8.34336 34939 ft 463 kts 220°
2026-05-07 05:19 37.90706 -8.38961 34914 ft 464 kts 221°
2026-05-07 05:20 37.85381 -8.43590 34909 ft 465 kts 221°
2026-05-07 05:20 37.80046 -8.48218 34921 ft 465 kts 221°
2026-05-07 05:21 37.72033 -8.55139 34933 ft 465 kts 221°
2026-05-07 05:22 37.66692 -8.59744 34939 ft 465 kts 221°
2026-05-07 05:22 37.61349 -8.64343 34918 ft 465 kts 221°
2026-05-07 05:23 37.56006 -8.68945 34934 ft 465 kts 221°
2026-05-07 05:23 37.50665 -8.73534 34907 ft 465 kts 222°
2026-05-07 05:24 37.45357 -8.78083 34913 ft 465 kts 222°
2026-05-07 05:24 37.40001 -8.82662 34920 ft 466 kts 222°
2026-05-07 05:25 37.34634 -8.87234 34912 ft 466 kts 222°
2026-05-07 05:25 37.29275 -8.91796 34924 ft 466 kts 222°
2026-05-07 05:26 37.23914 -8.96365 34932 ft 466 kts 222°
2026-05-07 05:26 37.18554 -9.00918 34939 ft 466 kts 222°
2026-05-07 05:27 37.13185 -9.05467 34940 ft 465 kts 222°
2026-05-07 05:27 37.07819 -9.09999 34907 ft 465 kts 223°
2026-05-07 05:28 37.02443 -9.14543 34920 ft 466 kts 223°
2026-05-07 05:28 36.97069 -9.19084 34935 ft 466 kts 222°
2026-05-07 05:29 36.91688 -9.23613 34938 ft 466 kts 222°
2026-05-07 05:29 36.86308 -9.28139 34927 ft 466 kts 222°
2026-05-07 05:30 36.80924 -9.32655 34936 ft 466 kts 222°
2026-05-07 05:30 36.75535 -9.37158 34945 ft 466 kts 222°
2026-05-07 05:31 36.70147 -9.41659 34951 ft 466 kts 222°
2026-05-07 05:31 36.64761 -9.46148 34954 ft 466 kts 222°
2026-05-07 05:32 36.59379 -9.50637 34931 ft 465 kts 222°
2026-05-07 05:32 36.54011 -9.55117 34962 ft 464 kts 222°
2026-05-07 05:33 36.48633 -9.59571 34970 ft 464 kts 222°
2026-05-07 05:33 36.43261 -9.64013 34967 ft 464 kts 222°
2026-05-07 05:34 36.37898 -9.68463 34966 ft 463 kts 222°
2026-05-07 05:34 36.32533 -9.72901 34942 ft 463 kts 222°
2026-05-07 05:35 36.27170 -9.77322 34949 ft 463 kts 221°
2026-05-07 05:35 36.21793 -9.81738 34959 ft 464 kts 221°
2026-05-07 05:36 36.16421 -9.86149 34964 ft 463 kts 221°
2026-05-07 05:36 36.11053 -9.90559 34976 ft 463 kts 221°
2026-05-07 05:37 36.05694 -9.94959 34957 ft 462 kts 221°
2026-05-07 05:37 36.00332 -9.99345 34971 ft 462 kts 221°
2026-05-07 05:38 35.94985 -10.03748 34974 ft 460 kts 223°
2026-05-07 05:38 35.89869 -10.08437 34976 ft 457 kts 226°
2026-05-07 05:39 35.84862 -10.13257 34982 ft 457 kts 226°
2026-05-07 05:39 35.79846 -10.17990 34959 ft 457 kts 225°
2026-05-07 05:40 35.74753 -10.22688 34958 ft 457 kts 225°
2026-05-07 05:40 35.69659 -10.27357 34976 ft 456 kts 225°
2026-05-07 05:41 35.64589 -10.32032 34987 ft 456 kts 225°
2026-05-07 05:41 35.61057 -10.35292 34991 ft 455 kts 225°
2026-05-07 05:42 35.56827 -10.39185 34992 ft 455 kts 225°
2026-05-07 05:42 35.55169 -10.40712 34994 ft 455 kts 225°
2026-05-07 05:43 35.50110 -10.45361 34992 ft 455 kts 225°
2026-05-07 05:43 35.45041 -10.49999 34992 ft 455 kts 225°
2026-05-07 05:44 35.39972 -10.54644 34991 ft 455 kts 225°
2026-05-07 05:44 35.34907 -10.59272 34986 ft 454 kts 225°
2026-05-07 05:45 35.29842 -10.63889 34999 ft 453 kts 225°
2026-05-07 05:45 35.24793 -10.68484 34982 ft 452 kts 225°
2026-05-07 05:46 35.19749 -10.73067 34992 ft 451 kts 225°
2026-05-07 05:46 35.14705 -10.77638 34994 ft 451 kts 225°
2026-05-07 05:47 35.09676 -10.82212 34994 ft 451 kts 225°
2026-05-07 05:47 35.04644 -10.86772 34994 ft 451 kts 225°
2026-05-07 05:48 34.99607 -10.91328 34970 ft 450 kts 225°
2026-05-07 05:48 34.94573 -10.95875 34967 ft 450 kts 225°
2026-05-07 05:49 34.89540 -11.00396 34991 ft 449 kts 225°
2026-05-07 05:49 34.84525 -11.04902 35007 ft 447 kts 225°
2026-05-07 05:50 34.79523 -11.09398 35006 ft 447 kts 225°
2026-05-07 05:50 34.74528 -11.13885 35003 ft 446 kts 225°
2026-05-07 05:51 34.69534 -11.18357 34974 ft 446 kts 224°
2026-05-07 05:51 34.64532 -11.22824 34979 ft 446 kts 224°
2026-05-07 05:52 34.59533 -11.27291 34987 ft 446 kts 225°
2026-05-07 05:52 34.54573 -11.31742 34978 ft 446 kts 225°
2026-05-07 05:53 34.49598 -11.36224 34997 ft 445 kts 224°
2026-05-07 05:53 34.44620 -11.40683 34986 ft 445 kts 224°
2026-05-07 05:54 34.39643 -11.45128 34996 ft 445 kts 224°
2026-05-07 05:54 34.34666 -11.49568 35001 ft 444 kts 224°
2026-05-07 05:55 34.29687 -11.53999 34999 ft 444 kts 224°
2026-05-07 05:55 34.24702 -11.58428 35003 ft 444 kts 224°
2026-05-07 05:56 34.19717 -11.62843 35008 ft 444 kts 224°
2026-05-07 05:56 34.14737 -11.67258 34979 ft 444 kts 224°
2026-05-07 05:57 34.10559 -11.70961 34985 ft 444 kts 224°
2026-05-07 05:57 34.05577 -11.75367 34989 ft 444 kts 224°
2026-05-07 05:58 34.00621 -11.79745 34994 ft 444 kts 224°
2026-05-07 05:58 33.95635 -11.84146 34994 ft 444 kts 224°
2026-05-07 05:59 33.90643 -11.88539 34996 ft 444 kts 224°
2026-05-07 05:59 33.85656 -11.92927 34978 ft 444 kts 224°
2026-05-07 06:00 33.80661 -11.97318 34981 ft 445 kts 224°
2026-05-07 06:00 33.75660 -12.01700 34987 ft 445 kts 224°
2026-05-07 06:01 33.70645 -12.06087 34986 ft 445 kts 223°
2026-05-07 06:01 33.65643 -12.10456 35004 ft 445 kts 223°
2026-05-07 06:02 33.60637 -12.14816 34988 ft 444 kts 223°
2026-05-07 06:02 33.55631 -12.19172 34999 ft 444 kts 223°
2026-05-07 06:03 33.50632 -12.23529 34996 ft 445 kts 223°
2026-05-07 06:03 33.45628 -12.27886 35003 ft 444 kts 223°
2026-05-07 06:04 33.40627 -12.32226 35004 ft 444 kts 223°
2026-05-07 06:04 33.35625 -12.36554 34999 ft 444 kts 223°
2026-05-07 06:05 33.30620 -12.40881 34964 ft 444 kts 223°
2026-05-07 06:05 33.25613 -12.45202 34977 ft 444 kts 223°
2026-05-07 06:06 33.20603 -12.49530 34993 ft 445 kts 223°
2026-05-07 06:06 33.15587 -12.53851 35001 ft 444 kts 223°
2026-05-07 06:07 33.10572 -12.58159 35005 ft 444 kts 223°
2026-05-07 06:07 33.05557 -12.62466 35006 ft 444 kts 223°
2026-05-07 06:08 33.00537 -12.66761 34987 ft 444 kts 223°
2026-05-07 06:08 32.95522 -12.71064 34991 ft 445 kts 223°
2026-05-07 06:09 32.90494 -12.75366 35001 ft 445 kts 223°
2026-05-07 06:09 32.85467 -12.79658 35001 ft 445 kts 222°
2026-05-07 06:10 32.80438 -12.83938 35011 ft 445 kts 222°
2026-05-07 06:10 32.75433 -12.88168 35019 ft 445 kts 222°
2026-05-07 06:11 32.70357 -12.92454 35024 ft 444 kts 222°
2026-05-07 06:11 32.65326 -12.96707 35024 ft 444 kts 222°
2026-05-07 06:12 32.60325 -13.00924 35017 ft 444 kts 222°
2026-05-07 06:12 32.55295 -13.05159 35017 ft 443 kts 222°
2026-05-07 06:13 32.50269 -13.09396 35019 ft 443 kts 222°
2026-05-07 06:13 32.45245 -13.13627 34983 ft 443 kts 222°
2026-05-07 06:14 32.40212 -13.17848 35001 ft 443 kts 222°
2026-05-07 06:14 32.35177 -13.22056 35013 ft 443 kts 222°
2026-05-07 06:15 32.30149 -13.26264 35023 ft 443 kts 222°
2026-05-07 06:15 32.25118 -13.30475 35025 ft 443 kts 222°
2026-05-07 06:16 32.20084 -13.34677 35024 ft 443 kts 221°
2026-05-07 06:16 32.15048 -13.38864 35001 ft 443 kts 221°
2026-05-07 06:17 32.10009 -13.43056 34996 ft 443 kts 221°
2026-05-07 06:17 32.04966 -13.47249 35009 ft 444 kts 221°
2026-05-07 06:18 31.99919 -13.51443 35009 ft 444 kts 221°
2026-05-07 06:18 31.94862 -13.55629 35027 ft 444 kts 221°
2026-05-07 06:19 31.89808 -13.59805 35029 ft 444 kts 221°
2026-05-07 06:19 31.84752 -13.63979 35006 ft 444 kts 221°
2026-05-07 06:20 31.79695 -13.68156 35012 ft 444 kts 221°
2026-05-07 06:20 31.74674 -13.72307 35019 ft 444 kts 221°
2026-05-07 06:21 31.69604 -13.76474 35022 ft 445 kts 221°
2026-05-07 06:21 31.64540 -13.80643 35031 ft 445 kts 221°
2026-05-07 06:22 31.59472 -13.84806 35034 ft 445 kts 221°
2026-05-07 06:22 31.51860 -13.91042 35006 ft 445 kts 221°
2026-05-07 06:23 31.46783 -13.95196 35022 ft 445 kts 221°
2026-05-07 06:23 31.41711 -13.99350 35025 ft 445 kts 221°
2026-05-07 06:24 31.36637 -14.03499 35026 ft 445 kts 221°
2026-05-07 06:24 31.31549 -14.07626 35029 ft 445 kts 221°
2026-05-07 06:25 31.26469 -14.11759 35013 ft 445 kts 221°
2026-05-07 06:25 31.21399 -14.15914 35015 ft 445 kts 221°
2026-05-07 06:26 31.16329 -14.20075 35015 ft 445 kts 221°
2026-05-07 06:26 31.11252 -14.24225 35008 ft 445 kts 221°
2026-05-07 06:27 31.06172 -14.28363 35016 ft 445 kts 221°
2026-05-07 06:27 31.01096 -14.32493 35020 ft 445 kts 221°
2026-05-07 06:28 30.96018 -14.36625 35003 ft 445 kts 221°
2026-05-07 06:28 30.90936 -14.40676 35007 ft 449 kts 216°
2026-05-07 06:29 30.88085 -14.42237 35009 ft 458 kts 205°
2026-05-07 06:29 30.85044 -14.43374 35010 ft 460 kts 203°
2026-05-07 06:29 30.78940 -14.45610 35011 ft 460 kts 203°
2026-05-07 06:30 30.72833 -14.47853 35013 ft 460 kts 204°
2026-05-07 06:30 30.66733 -14.50108 34996 ft 460 kts 204°
2026-05-07 06:31 30.60619 -14.52366 35008 ft 461 kts 203°
2026-05-07 06:31 30.54494 -14.54615 35011 ft 462 kts 203°
2026-05-07 06:32 30.48363 -14.56854 35012 ft 462 kts 203°
2026-05-07 06:32 30.42231 -14.59096 35010 ft 462 kts 203°
2026-05-07 06:33 30.36097 -14.61340 34998 ft 462 kts 203°
2026-05-07 06:33 30.29959 -14.63587 35008 ft 463 kts 203°
2026-05-07 06:34 30.23816 -14.65833 35009 ft 463 kts 203°
2026-05-07 06:34 30.17663 -14.68067 35027 ft 464 kts 203°
2026-05-07 06:35 30.11509 -14.70298 35005 ft 464 kts 203°
2026-05-07 06:35 30.05356 -14.72548 35007 ft 464 kts 203°
2026-05-07 06:36 29.99242 -14.74776 35011 ft 464 kts 203°
2026-05-07 06:36 29.93080 -14.77003 35010 ft 464 kts 203°
2026-05-07 06:37 29.86915 -14.79237 35015 ft 464 kts 203°
2026-05-07 06:37 29.80754 -14.81476 35020 ft 464 kts 203°
2026-05-07 06:38 29.74590 -14.83710 35017 ft 464 kts 203°
2026-05-07 06:38 29.68422 -14.85935 35015 ft 465 kts 203°
2026-05-07 06:39 29.62257 -14.88157 35022 ft 465 kts 203°
2026-05-07 06:39 29.56085 -14.90371 35020 ft 465 kts 203°
2026-05-07 06:40 29.49914 -14.92584 35003 ft 465 kts 202°
2026-05-07 06:40 29.43734 -14.94800 34844 ft 465 kts 202°
2026-05-07 06:41 29.40669 -14.95896 34401 ft 458 kts 202°
2026-05-07 06:41 29.37643 -14.96979 33916 ft 453 kts 202°
2026-05-07 06:41 29.34654 -14.98050 33365 ft 448 kts 202°
2026-05-07 06:41 29.31698 -14.99109 32812 ft 443 kts 202°
2026-05-07 06:42 29.28772 -15.00155 32262 ft 438 kts 202°
2026-05-07 06:42 29.25876 -15.01188 31730 ft 434 kts 202°
2026-05-07 06:42 29.23006 -15.02210 31176 ft 430 kts 202°
2026-05-07 06:42 29.20160 -15.03225 30663 ft 426 kts 202°
2026-05-07 06:43 29.18291 -15.03894 30334 ft 424 kts 202°
2026-05-07 06:43 29.15487 -15.04897 29798 ft 420 kts 202°
2026-05-07 06:43 29.12710 -15.05887 29239 ft 416 kts 202°
2026-05-07 06:43 29.09961 -15.06865 28697 ft 412 kts 202°
2026-05-07 06:44 29.07238 -15.07833 28173 ft 408 kts 202°
2026-05-07 06:44 29.04543 -15.08791 27600 ft 405 kts 202°
2026-05-07 06:44 29.01877 -15.09738 27157 ft 399 kts 202°
2026-05-07 06:44 28.99241 -15.10676 26657 ft 395 kts 202°
2026-05-07 06:45 28.96631 -15.11604 26196 ft 390 kts 202°
2026-05-07 06:45 28.94056 -15.12517 25738 ft 385 kts 202°
2026-05-07 06:45 28.91507 -15.13421 25269 ft 382 kts 202°
2026-05-07 06:45 28.88980 -15.14318 24800 ft 379 kts 202°
2026-05-07 06:46 28.86475 -15.15207 24320 ft 376 kts 202°
2026-05-07 06:46 28.83985 -15.16090 23844 ft 374 kts 202°
2026-05-07 06:46 28.81507 -15.16971 23322 ft 372 kts 202°
2026-05-07 06:46 28.79052 -15.17841 22832 ft 368 kts 201°
2026-05-07 06:47 28.76650 -15.18688 22380 ft 364 kts 201°
2026-05-07 06:47 28.74241 -15.19537 21930 ft 361 kts 201°
2026-05-07 06:47 28.71850 -15.20379 21472 ft 358 kts 201°
2026-05-07 06:47 28.69480 -15.21215 21037 ft 355 kts 201°
2026-05-07 06:48 28.67125 -15.22047 20600 ft 353 kts 201°
2026-05-07 06:48 28.64791 -15.22875 20160 ft 350 kts 201°
2026-05-07 06:48 28.62469 -15.23698 19728 ft 349 kts 201°
2026-05-07 06:48 28.60158 -15.24518 19286 ft 347 kts 200°
2026-05-07 06:49 28.57857 -15.25333 18853 ft 346 kts 200°
2026-05-07 06:49 28.55565 -15.26142 18426 ft 345 kts 200°
2026-05-07 06:49 28.53278 -15.26945 17956 ft 343 kts 200°
2026-05-07 06:49 28.51005 -15.27741 17532 ft 341 kts 200°
2026-05-07 06:50 28.48746 -15.28532 17111 ft 338 kts 200°
2026-05-07 06:50 28.46506 -15.29316 16698 ft 336 kts 200°
2026-05-07 06:50 28.44278 -15.30098 16300 ft 334 kts 200°
2026-05-07 06:50 28.42061 -15.30875 15904 ft 333 kts 200°
2026-05-07 06:51 28.39851 -15.31648 15506 ft 332 kts 201°
2026-05-07 06:51 28.37648 -15.32419 15114 ft 331 kts 201°
2026-05-07 06:51 28.35455 -15.33191 14718 ft 330 kts 201°
2026-05-07 06:51 28.33267 -15.33964 14329 ft 329 kts 201°
2026-05-07 06:52 28.31079 -15.34736 13946 ft 329 kts 201°
2026-05-07 06:52 28.28921 -15.35494 13734 ft 321 kts 201°
2026-05-07 06:52 28.26806 -15.36231 13528 ft 315 kts 201°
2026-05-07 06:52 28.24726 -15.36954 13319 ft 311 kts 201°
2026-05-07 06:53 28.22662 -15.37675 13120 ft 310 kts 201°
2026-05-07 06:53 28.20608 -15.38393 12908 ft 309 kts 201°
2026-05-07 06:53 28.18558 -15.39112 12702 ft 308 kts 201°
2026-05-07 06:53 28.16516 -15.39829 12499 ft 307 kts 201°
2026-05-07 06:54 28.14476 -15.40544 12289 ft 306 kts 200°
2026-05-07 06:54 28.12442 -15.41257 12073 ft 306 kts 200°
2026-05-07 06:54 28.10381 -15.41844 11866 ft 308 kts 189°
2026-05-07 06:54 28.08236 -15.41750 11658 ft 312 kts 170°
2026-05-07 06:55 28.06220 -15.40886 11451 ft 314 kts 151°
2026-05-07 06:55 28.04546 -15.39371 11246 ft 316 kts 136°
2026-05-07 06:55 28.02995 -15.37608 11036 ft 315 kts 136°
2026-05-07 06:55 28.01447 -15.35857 10823 ft 314 kts 136°
2026-05-07 06:56 27.99906 -15.34119 10615 ft 313 kts 136°
2026-05-07 06:56 27.98368 -15.32388 10406 ft 312 kts 136°
2026-05-07 06:56 27.96831 -15.30660 10196 ft 311 kts 136°
2026-05-07 06:56 27.95302 -15.28943 9991 ft 309 kts 136°
2026-05-07 06:57 27.93780 -15.27235 9778 ft 307 kts 136°
2026-05-07 06:57 27.92265 -15.25534 9560 ft 306 kts 136°
2026-05-07 06:57 27.90757 -15.23845 9372 ft 305 kts 136°
2026-05-07 06:57 27.89253 -15.22164 9173 ft 303 kts 136°
2026-05-07 06:58 27.87759 -15.20492 8983 ft 302 kts 136°
2026-05-07 06:58 27.86268 -15.18821 8779 ft 302 kts 136°
2026-05-07 06:58 27.84778 -15.17149 8585 ft 302 kts 136°
2026-05-07 06:58 27.83289 -15.15476 8391 ft 301 kts 136°
2026-05-07 06:59 27.81806 -15.13814 8158 ft 299 kts 137°
2026-05-07 06:59 27.80328 -15.12157 7965 ft 299 kts 136°
2026-05-07 06:59 27.78858 -15.10510 7747 ft 297 kts 136°
2026-05-07 06:59 27.77388 -15.08867 7534 ft 298 kts 137°
2026-05-07 07:00 27.75916 -15.07223 7322 ft 296 kts 136°
2026-05-07 07:00 27.74464 -15.05602 7112 ft 292 kts 136°
2026-05-07 07:00 27.72966 -15.04140 6970 ft 278 kts 152°
2026-05-07 07:00 27.71196 -15.03506 6850 ft 261 kts 179°
2026-05-07 07:01 27.69467 -15.03804 6681 ft 246 kts 207°
2026-05-07 07:01 27.68084 -15.04853 6516 ft 238 kts 230°
2026-05-07 07:01 27.67197 -15.06383 6342 ft 231 kts 248°
2026-05-07 07:01 27.66489 -15.08018 6158 ft 233 kts 248°
2026-05-07 07:02 27.65773 -15.09668 5981 ft 235 kts 247°
2026-05-07 07:02 27.65050 -15.11323 5799 ft 236 kts 246°
2026-05-07 07:02 27.64325 -15.12990 5629 ft 237 kts 247°
2026-05-07 07:02 27.63896 -15.14763 5427 ft 233 kts 269°
2026-05-07 07:03 27.64031 -15.16569 5284 ft 232 kts 288°
2026-05-07 07:03 27.64595 -15.18266 5134 ft 232 kts 294°
2026-05-07 07:03 27.65190 -15.19951 4977 ft 232 kts 294°
2026-05-07 07:03 27.65783 -15.21645 4825 ft 232 kts 294°
2026-05-07 07:04 27.66375 -15.23339 4657 ft 232 kts 294°
2026-05-07 07:04 27.66968 -15.25035 4502 ft 232 kts 294°
2026-05-07 07:04 27.67553 -15.26708 4344 ft 233 kts 294°
2026-05-07 07:04 27.68145 -15.28408 4196 ft 233 kts 294°
2026-05-07 07:05 27.68736 -15.30109 4043 ft 233 kts 294°
2026-05-07 07:05 27.69326 -15.31805 3888 ft 232 kts 294°
2026-05-07 07:05 27.69920 -15.33501 3735 ft 233 kts 294°
2026-05-07 07:05 27.70507 -15.35178 3578 ft 227 kts 294°
2026-05-07 07:06 27.71075 -15.36805 3438 ft 220 kts 295°
2026-05-07 07:06 27.71626 -15.38391 3285 ft 215 kts 295°
2026-05-07 07:06 27.72172 -15.39957 3158 ft 214 kts 295°
2026-05-07 07:06 27.72719 -15.41490 3035 ft 206 kts 300°
2026-05-07 07:07 27.73500 -15.42758 2888 ft 190 kts 320°
2026-05-07 07:07 27.74530 -15.43643 2765 ft 189 kts 335°
2026-05-07 07:07 27.75729 -15.44275 2681 ft 191 kts 339°
2026-05-07 07:07 27.76935 -15.44889 2584 ft 188 kts 345°
2026-05-07 07:08 27.78204 -15.45092 2506 ft 186 kts
2026-05-07 07:08 27.79426 -15.44735 2385 ft 183 kts 21°
2026-05-07 07:08 27.80612 -15.44206 2257 ft 184 kts 21°
2026-05-07 07:08 27.81809 -15.43680 2138 ft 185 kts 21°
2026-05-07 07:09 27.82999 -15.43157 1942 ft 183 kts 21°
2026-05-07 07:09 27.84171 -15.42641 1709 ft 175 kts 21°
2026-05-07 07:09 27.85248 -15.42166 1496 ft 159 kts 21°
2026-05-07 07:09 27.86210 -15.41737 1297 ft 141 kts 21°
2026-05-07 07:10 27.87106 -15.41347 1078 ft 136 kts 21°
2026-05-07 07:10 27.87979 -15.40961 893 ft 133 kts 21°
2026-05-07 07:10 27.88822 -15.40577 753 ft 130 kts 18°
2026-05-07 07:10 27.89692 -15.40187 579 ft 138 kts 15°
2026-05-07 07:11 27.90595 -15.39799 432 ft 139 kts 20°
2026-05-07 07:11 27.91489 -15.39419 244 ft 135 kts 22°
2026-05-07 07:11 27.92338 -15.39032 85 ft 126 kts 21°
2026-05-07 07:11 27.92999 -15.38744 62 ft 56 kts 21°
2026-05-07 07:12 27.93236 -15.38731 68 ft 30 kts 348°
2026-05-07 07:12 27.93349 -15.38752 74 ft 13 kts 352°
2026-05-07 07:12 27.93437 -15.38740 73 ft 14 kts 22°
2026-05-07 07:12 27.93512 -15.38728 76 ft 9 kts 316°
2026-05-07 07:13 27.93530 -15.38771 82 ft 5 kts 290°
2026-05-07 07:13 27.93541 -15.38812 85 ft 5 kts 280°
2026-05-07 07:13 27.93546 -15.38848 83 ft 6 kts 281°
2026-05-07 07:13 27.93556 -15.38884 86 ft 4 kts 289°
2026-05-07 07:14 27.93564 -15.38907 85 ft 2 kts 291°
2026-05-07 07:14 27.93567 -15.38917 89 ft 0 kts 290°
2026-05-07 07:15 27.93567 -15.38919 88 ft 2 kts 290°
2026-05-07 07:15 27.93572 -15.38932 87 ft 3 kts 292°
2026-05-07 07:15 27.93575 -15.38941 86 ft 0 kts 291°